Regional Weather Roundup
Issued by NWS

Home | Current Version | Previous Version | Text Only | Print | Product List | Glossary On
Versions: 1 2 3 4 5 6 7 8 9 10 11 12 13 14 15 16 17 18 19 20 21 22 23 24 25 26 27 28 29 30 31 32 33 34 35 36 37 38 39 40 41 42 43 44 45 46 47 48 49 50
000
ASUS44 KFWD 190001
RWRTX
NORTH TEXAS HOURLY WEATHER ROUNDUP
NATIONAL WEATHER SERVICE FORT WORTH TX
700 PM CDT SAT APR 18 2015

NOTE: "FAIR" INDICATES FEW OR NO CLOUDS BELOW 12,000 FEET WITH NO
SIGNIFICANT WEATHER AND/OR OBSTRUCTIONS TO VISIBILITY.

TXZ118-119-190100-
DALLAS/FORT WORTH METROPLEX

CITY           SKY/WX    TMP DP  RH WIND       PRES   REMARKS
DFW AIRPORT    PTSUNNY   74  63  68 SE6       29.73F
6HR MIN TEMP:  74; 6HR MAX TEMP:  81;

DALLAS LOVE    PTSUNNY   78  61  55 E10       29.73F
6HR MIN TEMP:  76; 6HR MAX TEMP:  82;

FTW MEACHAM    CLOUDY    76  63  64 SE10      29.72F
6HR MIN TEMP:  74; 6HR MAX TEMP:  81;

DAL-EXECUTIVE  MOSUNNY   76  61  59 E8        29.73F
6HR MIN TEMP:  74; 6HR MAX TEMP:  80;

FTW-ALLIANCE   TSTM      70  66  87 N6        29.74F
6HR MIN TEMP:  70; 6HR MAX TEMP:  80; 6HR PCP:  0.26;

FTW-NAS-JRB    CLOUDY    78  63  59 SE10      29.76F THUNDER
6HR MIN TEMP:  75; 6HR MAX TEMP:  82; 6HR PCP: TRACE;

FTW-SPINKS     MOSUNNY   73  64  73 SE9       29.74F
ARLINGTON      MOSUNNY   77  61  57 E7        29.73F
6HR MIN TEMP:  75; 6HR MAX TEMP:  82;

GRAND PRAIRIE  SUNNY     75  63  64 E5        29.74F
ADDISON        PTSUNNY   79  59  50 E9        29.73F
MESQUITE       SUNNY     75  64  69 E5        29.74F
LANCASTER      MOSUNNY   76  63  65 E5        29.75S
6HR MIN TEMP:  74; 6HR MAX TEMP:  79;

$$

TXZ091>094-102>105-117-120-121-131>134-190100-
NORTH CENTRAL TEXAS

CITY           SKY/WX    TMP DP  RH WIND       PRES   REMARKS
SHRMAN/DENISON PTSUNNY   75  65  70 E7        29.76F
6HR MIN TEMP:  75; 6HR MAX TEMP:  80;

BRIDGEPORT     TSTM      67  58  73 NW15G28   29.77F
6HR MIN TEMP:  67; 6HR MAX TEMP:  77;

DECATUR        HVY RAIN  63  52  68 NW7       29.83R
6HR MIN TEMP:  62; 6HR MAX TEMP:  77; 6HR PCP:  0.07;

DENTON         CLOUDY    74  63  68 N7        29.74F
6HR MIN TEMP:  74; 6HR MAX TEMP:  79;

MCKINNEY       PTSUNNY   76  63  64 SE5       29.74F
6HR MIN TEMP:  76; 6HR MAX TEMP:  80;

ROCKWALL       MOSUNNY   76  63  65 CALM      29.74F
6HR MIN TEMP:  74; 6HR MAX TEMP:  79;

TERRELL        MOSUNNY   77  62  59 E6        29.75S
6HR MIN TEMP:  76; 6HR MAX TEMP:  82;

WAXAHACHIE     MOSUNNY   74  64  70 SE3       29.75S
6HR MIN TEMP:  72; 6HR MAX TEMP:  79;

GRANBURY       TSTM      60  56  86 W15G35    29.90R
6HR MIN TEMP:  60; 6HR MAX TEMP:  81; 6HR PCP:  0.15;

$$

TXZ083>090-098>101-113>116-127>130-139>142-154-155-190100-
WESTERN NORTH TEXAS

CITY           SKY/WX    TMP DP  RH WIND       PRES   REMARKS
WICHITA FALLS  CLOUDY    72  53  51 E8        29.73S
6HR MIN TEMP:  70; 6HR MAX TEMP:  77; 6HR PCP: TRACE;

WF-KICKAPOO    CLOUDY    73  63  70 E12       29.74F
6HR MIN TEMP:  72; 6HR MAX TEMP:  78;

ABILENE        CLOUDY    73  51  46 SE9       29.73F
6HR MIN TEMP:  71; 6HR MAX TEMP:  79;

ABILENE-DYESS  PTSUNNY   73  50  44 S8        29.72F
6HR MIN TEMP:  72; 6HR MAX TEMP:  80; 6HR PCP:  0.03;

BRECKENRIDGE   CLOUDY    61  58  88 SE16      29.74F
6HR MIN TEMP:  61; 6HR MAX TEMP:  83;

MINERAL WELLS  TSTM      60  53  77 N17G30    29.83R
6HR MIN TEMP:  57; 6HR MAX TEMP:  79; 6HR PCP:  0.52;

STEPHENVILLE   CLOUDY    60  53  77 SW15G23   29.83R
6HR MIN TEMP:  59; 6HR MAX TEMP:  79; 6HR PCP:  0.07;

COMANCHE       CLOUDY    59  55  85 SE7G21    29.72F
6HR MIN TEMP:  58; 6HR MAX TEMP:  81; 6HR PCP:  0.03;

BRADY          SUNNY     63  57  82 S5        29.76R
$$

TXZ143>147-156>162-174-175-190100-
CENTRAL TEXAS

CITY           SKY/WX    TMP DP  RH WIND       PRES   REMARKS
WACO           MOSUNNY   75  62  64 SE8       29.76R
6HR MIN TEMP:  74; 6HR MAX TEMP:  79;

WACO-TSTC      SUNNY     75  64  69 SE6       29.76R
WACO-MCGREGOR  MOSUNNY   75  61  60 S7        29.77R
6HR MIN TEMP:  73; 6HR MAX TEMP:  81;

CORSICANA      MOSUNNY   78  62  57 E6        29.75R
6HR MIN TEMP:  75; 6HR MAX TEMP:  81;

MEXIA          MOSUNNY   75  65  70 SE12      29.74F
6HR MIN TEMP:  72; 6HR MAX TEMP:  78;

HEARNE         PTSUNNY   75  67  76 SE7       29.75F
6HR MIN TEMP:  73; 6HR MAX TEMP:  78;

TEMPLE         PTSUNNY   73  63  68 SE7       29.76R
6HR MIN TEMP:  73; 6HR MAX TEMP:  79;

KILLEEN        NOT AVBL
FORT HOOD      CLOUDY    74  64  69 SE6       29.76R
6HR MIN TEMP:  72; 6HR MAX TEMP:  78;

HAMILTON       TSTM      58  58 100 W5        29.84F
6HR MIN TEMP:  58; 6HR MAX TEMP:  79; 6HR PCP:  0.39;

$$

TXZ095>097-106>112-122>126-135>138-148>153-164>167-190100-
EAST TEXAS

CITY           SKY/WX    TMP DP  RH WIND       PRES   REMARKS
PARIS          SUNNY     73  61  64 MISG      29.79S
6HR MIN TEMP:  73; 6HR MAX TEMP:  77;

SULPHUR SPRNGS   N/A     74  64  71 E6        29.78F
6HR MIN TEMP:  74; 6HR MAX TEMP:  78;

GILMER         PTCLDY    72  66  81 CALM      29.77F
6HR MIN TEMP:  72; 6HR MAX TEMP:  76;

TYLER          PTSUNNY   78  64  61 E7        29.75F
6HR MIN TEMP:  74; 6HR MAX TEMP:  81;

LONGVIEW       MOCLDY    74  66  76 E9        29.75F
6HR MIN TEMP:  73; 6HR MAX TEMP:  80; 6HR PCP: TRACE;

ATHENS         PTSUNNY   75  63  64 SE6       29.74S
PALESTINE      CLOUDY    80  68  66 S5        29.76F
JACKSONVILLE   CLOUDY    75  66  73 NE3       29.77F
NACOGDOCHES    MOCLDY    75  66  73 SE5       29.76F
6HR MIN TEMP:  73; 6HR MAX TEMP:  77;

LUFKIN         CLOUDY    78  68  71 SE7       29.75F
6HR MIN TEMP:  76; 6HR MAX TEMP:  81;

$$

SUPPLEMENTAL OBSERVATIONS (CENTRAL)

CITY           SKY/WX    TMP DP  RH WIND       PRES   REMARKS
$$

SUPPLEMENTAL OBSERVATIONS (WEST)

CITY           SKY/WX    TMP DP  RH WIND       PRES   REMARKS
$$

SUPPLEMENTAL OBSERVATIONS (EAST)

CITY           SKY/WX    TMP DP  RH WIND       PRES   REMARKS
$$

SUPPLEMENTAL OBSERVATIONS ARE A COLLECTION OF AUTOMATED INSTRUMENTS
THAT ARE MAINTAINED BY A VARIETY OF FEDERAL AND STATE AGENCIES.
CERTAIN ELEMENTS...SUCH AS HUMIDITY VALUES AND SUSTAINED WIND
SPEEDS...MAY BE APPROXIMATED.




USA.gov is the U.S. government's official web portal to all federal, state and local government web resources and services.